Home   Weather   Grand Rapids   Past weeks

Flag for USA Past Weather in Grand Rapids, Michigan, USA — Yesterday and Last 2 Weeks

Now
36 °F

Light rain. More clouds than sun.


Feels Like: 30 °F
Forecast: 35 / 39 °F
Wind: 7 mph from Northeast

Location: Tulip City Airport

Current Time: Jan 20, 2017 at 9:29:15 am

Latest Report: Jan 20, 2017 at 8:10 am


Visibility: N/A

Pressure: 29.66 "Hg

Humidity: 92%

Dew Point: 34 °F

Location of Grand RapidsLocation

Past Weather in Grand Rapids — Graph

°F

Grand Rapids Temperature Yesterday

Maximum temperature yesterday: 39 °F (at 4:07 pm)
Minimum temperature yesterday: 36 °F (at 12:34 am)
Average temperature yesterday: 37 °F

High & Low Weather Summary for the Past Weeks

 TemperatureHumidityPressure
High46 °F (Jan 10, 4:53 pm)97% (Jan 16, 9:53 pm)30.81 "Hg (Jan 16, 9:53 pm)
Low9 °F (Jan 6, 7:33 am)55% (Jan 12, 9:53 pm)29.23 "Hg (Jan 10, 4:53 pm)
Average26 °F80%30.17 "Hg
* Reported Jan 5 8:11 am — Jan 20 8:10 am, Grand Rapids, Weather by CustomWeather, © 2017

Note: Actual official high and low records may vary slightly from our data, if they occured in-between our weather recording intervals... More about our weather records

Advertising

Grand Rapids Weather History for the Previous 24 Hours

Scroll right to see more
 ConditionsComfort  
Time TempWeatherWind HumidityBarometerVisibility
8:10 am
Fri, Jan 20
36 °FLight rain. More clouds than sun.7 mph92%29.66 "HgN/A
7:28 am36 °FLight rain. Mostly cloudy.7 mph92%29.66 "HgN/A
6:53 am36 °FLight rain. Mostly cloudy.7 mph92%29.69 "HgN/A
6:21 am36 °FLight rain. Mostly cloudy.7 mph92%29.67 "HgN/A
5:53 am36 °FLight rain. Low clouds.6 mph92%29.69 "HgN/A
4:53 am36 °FRain. Low clouds.6 mph92%29.71 "HgN/A
4:06 am37 °FLight rain. Low clouds.7 mph89%29.70 "HgN/A
2:53 am37 °FLight rain. Overcast.7 mph89%29.75 "HgN/A
1:53 am37 °FLight rain. Mostly cloudy.5 mph89%29.76 "HgN/A
12:53 am37 °FLight rain. Overcast.6 mph89%29.79 "HgN/A
11:53 pm
Thu, Jan 19
38 °FOvercast.8 mph86%29.81 "HgN/A
10:53 pm38 °FOvercast.7 mph86%29.84 "HgN/A
9:53 pm38 °FPassing clouds.5 mph86%29.87 "HgN/A
8:53 pm37 °FOvercast.7 mph89%29.87 "HgN/A
7:53 pm37 °FClear.7 mph89%29.89 "HgN/A
6:53 pm36 °FClear.3 mph92%29.93 "HgN/A
5:53 pm36 °FClear.6 mph89%29.92 "HgN/A
4:53 pm39 °FChilly.3 mph86%29.93 "HgN/A
4:07 pm39 °FScattered clouds.7 mph86%29.93 "HgN/A
2:53 pm38 °FLow clouds.6 mph90%29.96 "HgN/A
1:53 pm37 °FLow clouds.8 mph93%29.97 "HgN/A
12:53 pm37 °FLow clouds.6 mph89%29.99 "HgN/A
12:25 pm37 °FLow clouds.3 mph93%29.99 "HgN/A
11:53 am37 °FLow clouds.5 mph89%30.04 "HgN/A
10:53 am37 °FLow clouds.N/A89%30.05 "Hg8 mi
9:53 am37 °FLow clouds.N/A89%30.05 "Hg8 mi
Weather by CustomWeather, © 2017

See weather overviewHow to use our weather pages